Culiacan, Mexico

12:16 PM MST on December 09, 2016 (GMT -0700)
Culiacan International

Weather History for MMCL - October, 2012

Change the Weather History Date:

Monday, October 29, 2012

  Actual Average Record
Temperature  
Mean Temperature 81 °F -  
Max Temperature 94 °F 92 °F 102 °F (2007)
Min Temperature 67 °F 68 °F 66 °F (1996)
Cooling Degree Days 16    
Growing Degree Days 31 (Base 50)    
Moisture  
Dew Point 68 °F    
Average Humidity 66    
Maximum Humidity 88    
Minimum Humidity 23    
Precipitation  
Precipitation 0.00 in - - ()
Sea Level Pressure  
Sea Level Pressure 29.94 in    
Wind  
Wind Speed 3 mph ()    
Max Wind Speed 12 mph    
Max Gust Speed -    
Visibility 10.9 miles    
Events      
Averages and records for this station are not official NWS values.
T = Trace of Precipitation, MM = Missing Value Source: Averaged Metar Reports

Daily Weather History Graph

Daily Weather History Graph

Search for Another Location

Airport or City:

Trip Planner

Search our weather history database for the weather conditions in past years. The results will help you decide how hot, cold, wet, or windy it might be!

Date:

Astronomy

Oct. 29, 2012 Rise Set
Actual Time 6:15 AM MST 5:31 PM MST
Civil Twilight 5:52 AM MST 5:54 PM MST
Nautical Twilight 5:25 AM MST 6:21 PM MST
Astronomical Twilight 4:58 AM MST 6:48 PM MST
Moon 5:29 PM MST (10/29) 6:05 AM MST (10/29)
Length of Visible Light 12h 02m
Length of Day
11h 15m
Full, 100% of the Moon is Illuminated
Oct 29
Full
Oct 29
Full
Nov 6
Last Quarter
Nov 13
New
Nov 20
First Quarter

Hourly Weather History & Observations

Time (MST) Temp. Heat Index Dew Point Humidity Pressure Visibility Wind Dir Wind Speed Gust Speed Precip Events Conditions
12:41 AM 73.4 °F - 68.0 °F 83% 29.96 in 10.0 mi Calm Calm - N/A   Scattered Clouds
5:55 AM 69.8 °F - 66.2 °F 88% 29.98 in 10.0 mi ENE 4.6 mph - N/A   Clear
6:40 AM 69.8 °F - 66.2 °F 88% 29.97 in 10.0 mi East 5.8 mph - N/A   Clear
7:40 AM 71.6 °F - 66.2 °F 83% 29.93 in 10.0 mi ENE 11.5 mph - N/A   Clear
7:50 AM 72 °F - 67 °F 79% 29.98 in 10 mi 2.2 mph - -   Haze
8:40 AM 75.2 °F - 68.0 °F 78% 29.99 in 10.0 mi Calm Calm - N/A   Clear
9:50 AM 82.4 °F 84.6 °F 66.2 °F 58% 30.00 in 10.0 mi ENE 4.6 mph - N/A   Clear
10:40 AM 84.2 °F 88.4 °F 69.8 °F 62% 30.00 in 10.0 mi Calm Calm - N/A   Clear
10:50 AM 87 °F - 65 °F 37% 29.99 in 10 mi WNW 2.2 mph - -   Haze
11:40 AM 87.8 °F 95.6 °F 73.4 °F 62% 29.95 in 10.0 mi North 11.5 mph - N/A   Clear
12:40 PM 91.4 °F 98.4 °F 71.6 °F 52% 29.92 in 10.0 mi NNW 6.9 mph - N/A   Clear
1:44 PM 93.2 °F 96.2 °F 66.2 °F 41% 29.89 in 20.0 mi SW 5.8 mph - N/A   Clear
1:50 PM 94 °F - 60 °F 23% 29.87 in 10 mi WSW 2.2 mph - -   Haze
2:45 PM 95.0 °F 99.5 °F 68.0 °F 41% 29.87 in 20.0 mi SW 5.8 mph - N/A   Clear
3:41 PM 93.2 °F 94.9 °F 64.4 °F 38% 29.88 in 20.0 mi SW 6.9 mph - N/A   Clear
4:42 PM 87.8 °F 88.5 °F 62.6 °F 43% 29.85 in 10.0 mi West 8.1 mph - N/A   Clear
5:40 PM 82.4 °F 86.3 °F 69.8 °F 66% 29.91 in 10.0 mi West 5.8 mph - N/A   Clear
6:40 PM 78.8 °F - 71.6 °F 78% 29.92 in 10.0 mi Calm Calm - N/A   Clear
7:41 PM 77.0 °F - 71.6 °F 83% 29.90 in 10.0 mi Calm Calm - N/A   Clear
7:50 PM 77 °F - 67 °F 65% 29.92 in 6 mi West 2.2 mph - -  
8:40 PM 77.0 °F - 71.6 °F 83% 29.96 in 10.0 mi Calm Calm - N/A   Clear
9:43 PM 75.2 °F - 69.8 °F 83% 29.97 in 10.0 mi Calm Calm - N/A   Clear
10:40 PM 75.2 °F - 69.8 °F 83% 29.94 in 10.0 mi Calm Calm - N/A   Clear
10:50 PM 68 °F - 65 °F 87% 29.96 in 6 mi ESE 2.2 mph - -